Zurück zum Katalog

NIGHTJAR

AktivWissenschaftSSO
NORAD 60535·PAYLOAD·🇹🇼 Taiwan

Gestartet Aug 16, 2024 von Vandenberg Space Force Base

Loading…

Nächste Überflüge (nächste 24 Stunden)

TLE

AktuellSource: Space-Track

Epoche: Sep 14, 2026, 03:48 UTC

1 60535U 24149BV  26257.15902361  .00002874  00000-0  23922-3 0  9990
2 60535  97.6775 332.6171 0003531 117.2275 242.9309 14.99451015156204

Verfolge NIGHTJAR in Echtzeit mit AllMySat

Download on the App Store